| time (UTC) | temp F | wind direction | speed MPH | gust MPH | rain 1hr in | rain 24hr in | rain mn in | humidity % | barometer mb |
| 20260508021533 | 49 | 38 | 0.0 | 0.0 | 0.00 | 0.00 | 0.00 | 88 | |
| 20260508020535 | 49 | 38 | 0.0 | 0.0 | 0.00 | 0.00 | 0.00 | 88 | |
| 20260508015548 | 49 | 38 | 0.0 | 0.0 | 0.00 | 0.00 | 0.00 | 88 | |
| 20260508014549 | 50 | 38 | 0.0 | 0.0 | 0.00 | 0.00 | 0.00 | 88 | |
| 20260508013540 | 50 | 38 | 0.0 | 0.0 | 0.00 | 0.00 | 0.00 | 88 | |
| 20260508012524 | 50 | 38 | 0.0 | 0.0 | 0.00 | 0.00 | 0.00 | 88 | |
| 20260508011528 | 50 | 38 | 0.0 | 0.0 | 0.00 | 0.00 | 0.00 | 88 | |
| 20260508010521 | 50 | 38 | 0.0 | 0.0 | 0.00 | 0.00 | 0.00 | 88 | |
| 20260508005525 | 50 | 38 | 0.0 | 0.0 | 0.00 | 0.00 | 0.00 | 88 | |
| 20260508004538 | 50 | 38 | 0.0 | 0.0 | 0.00 | 0.00 | 0.00 | 88 | |
| 20260508003522 | 50 | 38 | 0.0 | 0.0 | 0.00 | 0.00 | 0.00 | 87 | |
| 20260508002531 | 50 | 38 | 0.0 | 0.0 | 0.00 | 0.00 | 0.00 | 87 | |
| 20260508001534 | 50 | 38 | 0.0 | 0.0 | 0.00 | 0.00 | 0.00 | 87 | |
| 20260508000547 | 50 | 38 | 0.0 | 0.0 | 0.00 | 0.00 | 0.00 | 86 | |
| 20260507235531 | 50 | 38 | 0.0 | 0.0 | 0.00 | 0.00 | 0.00 | 87 | |
| 20260507234545 | 51 | 38 | 0.0 | 0.0 | 0.00 | 0.00 | 0.00 | 87 | |
| 20260507233527 | 51 | 38 | 0.0 | 0.0 | 0.00 | 0.00 | 0.00 | 86 | |
| 20260507232541 | 51 | 38 | 0.0 | 0.0 | 0.00 | 0.00 | 0.00 | 86 | |
| 20260507231525 | 51 | 38 | 0.0 | 0.0 | 0.00 | 0.00 | 0.00 | 85 | |
| 20260507230523 | 51 | 38 | 0.0 | 0.0 | 0.00 | 0.00 | 0.00 | 85 | |
| 20260507225557 | 51 | 38 | 0.0 | 0.0 | 0.00 | 0.00 | 0.00 | 85 | |
| 20260507224529 | 51 | 38 | 0.0 | 0.0 | 0.00 | 0.00 | 0.00 | 84 | |
| 20260507223533 | 51 | 38 | 0.0 | 0.0 | 0.00 | 0.00 | 0.00 | 84 | |
| 20260507222546 | 51 | 38 | 0.0 | 4.0 | 0.00 | 0.00 | 0.00 | 84 | |
| 20260507221530 | 51 | 38 | 2.0 | 4.0 | 0.00 | 0.00 | 0.00 | 83 | |
| 20260507220543 | 52 | 38 | 2.0 | 2.0 | 0.00 | 0.00 | 0.00 | 83 | |
| 20260507215527 | 52 | 38 | 2.0 | 3.0 | 0.00 | 0.00 | 0.00 | 83 | |
| 20260507214526 | 52 | 38 | 2.0 | 3.0 | 0.00 | 0.00 | 0.00 | 83 | |
| 20260507213539 | 52 | 38 | 1.0 | 4.0 | 0.00 | 0.00 | 0.00 | 82 | |
| 20260507212523 | 52 | 38 | 3.0 | 5.0 | 0.00 | 0.00 | 0.00 | 82 | |
| 20260507211556 | 52 | 38 | 1.0 | 4.0 | 0.00 | 0.00 | 0.00 | 82 | |
| 20260507210548 | 52 | 38 | 2.0 | 3.0 | 0.00 | 0.00 | 0.00 | 81 | |
| 20260507205532 | 52 | 38 | 2.0 | 3.0 | 0.00 | 0.00 | 0.00 | 81 | |
| 20260507204546 | 52 | 38 | 2.0 | 4.0 | 0.00 | 0.00 | 0.00 | 81 | |
| 20260507203525 | 52 | 38 | 3.0 | 5.0 | 0.00 | 0.00 | 0.00 | 81 | |
| 20260507202529 | 52 | 38 | 3.0 | 6.0 | 0.00 | 0.00 | 0.00 | 81 | |
| 20260507201543 | 52 | 35 | 3.0 | 5.0 | 0.00 | 0.00 | 0.00 | 81 | |
| 20260507200555 | 53 | 36 | 3.0 | 5.0 | 0.00 | 0.00 | 0.00 | 81 | |
| 20260507195547 | 53 | 36 | 1.0 | 5.0 | 0.00 | 0.00 | 0.00 | 81 | |
| 20260507194550 | 53 | 35 | 3.0 | 6.0 | 0.00 | 0.00 | 0.00 | 81 | |
| 20260507193538 | 53 | 35 | 4.0 | 6.0 | 0.00 | 0.00 | 0.00 | 81 | |
| 20260507192521 | 53 | 38 | 4.0 | 7.0 | 0.00 | 0.00 | 0.00 | 81 | |
| 20260507191554 | 53 | 24 | 4.0 | 6.0 | 0.00 | 0.00 | 0.00 | 80 | |
| 20260507190547 | 53 | 19 | 2.0 | 5.0 | 0.00 | 0.00 | 0.00 | 80 | |
| 20260507185529 | 53 | 17 | 3.0 | 6.0 | 0.00 | 0.00 | 0.00 | 80 | |
| 20260507184533 | 54 | 16 | 4.0 | 7.0 | 0.00 | 0.00 | 0.00 | 79 | |
| 20260507183527 | 54 | 23 | 3.0 | 6.0 | 0.00 | 0.00 | 0.00 | 79 | |
| 20260507182531 | 54 | 32 | 5.0 | 7.0 | 0.00 | 0.00 | 0.00 | 79 | |
| 20260507181540 | 54 | 30 | 5.0 | 7.0 | 0.00 | 0.00 | 0.00 | 79 | |
| 20260507180524 | 54 | 41 | 4.0 | 7.0 | 0.00 | 0.00 | 0.00 | 79 | |
| 20260507175536 | 54 | 33 | 4.0 | 8.0 | 0.00 | 0.00 | 0.00 | 79 | |
| 20260507174540 | 54 | 14 | 4.0 | 7.0 | 0.00 | 0.00 | 0.00 | 79 | |
| 20260507173524 | 54 | 18 | 5.0 | 8.0 | 0.00 | 0.00 | 0.00 | 79 | |
| 20260507172557 | 54 | 18 | 5.0 | 8.0 | 0.00 | 0.00 | 0.00 | 78 | |
| 20260507171529 | 55 | 18 | 6.0 | 8.0 | 0.00 | 0.00 | 0.00 | 78 | |
| 20260507170558 | 55 | 16 | 7.0 | 8.0 | 0.00 | 0.00 | 0.00 | 78 | |
| 20260507165522 | 55 | 5 | 6.0 | 9.0 | 0.00 | 0.00 | 0.00 | 78 | |
| 20260507164527 | 55 | 14 | 7.0 | 9.0 | 0.00 | 0.00 | 0.00 | 78 | |
| 20260507163540 | 55 | 16 | 6.0 | 8.0 | 0.00 | 0.00 | 0.00 | 78 | |
| 20260507162523 | 55 | 9 | 6.0 | 8.0 | 0.00 | 0.00 | 0.00 | 78 | |
| 20260507161536 | 55 | 20 | 6.0 | 8.0 | 0.00 | 0.00 | 0.00 | 77 | |
| 20260507160549 | 55 | 12 | 5.0 | 8.0 | 0.00 | 0.00 | 0.00 | 77 | |
| 20260507155543 | 55 | 16 | 5.0 | 7.0 | 0.00 | 0.00 | 0.00 | 77 | |
| 20260507154534 | 55 | 15 | 6.0 | 9.0 | 0.00 | 0.00 | 0.00 | 77 | |
| 20260507153609 | 56 | 11 | 6.0 | 8.0 | 0.00 | 0.00 | 0.00 | 76 | |
| 20260507152530 | 56 | 5 | 6.0 | 9.0 | 0.00 | 0.00 | 0.00 | 76 | |
| 20260507151534 | 56 | 14 | 6.0 | 10.0 | 0.00 | 0.00 | 0.00 | 76 | |
| 20260507150526 | 56 | 19 | 5.0 | 9.0 | 0.00 | 0.00 | 0.00 | 76 | |
| 20260507145558 | 56 | 9 | 7.0 | 10.0 | 0.00 | 0.00 | 0.00 | 75 | |
| 20260507144538 | 56 | 17 | 5.0 | 8.0 | 0.00 | 0.00 | 0.00 | 75 | |
| 20260507143550 | 56 | 11 | 5.0 | 8.0 | 0.00 | 0.00 | 0.00 | 75 | |
| 20260507142544 | 56 | 32 | 7.0 | 10.0 | 0.00 | 0.00 | 0.00 | 75 | |
| 20260507141527 | 57 | 15 | 5.0 | 10.0 | 0.00 | 0.00 | 0.00 | 74 | |
| 20260507140601 | 57 | 19 | 5.0 | 9.0 | 0.00 | 0.00 | 0.00 | 74 | |
| 20260507135523 | 57 | 360 | 3.0 | 4.0 | 0.00 | 0.00 | 0.00 | 73 | |
| 20260507134552 | 57 | 360 | 4.0 | 8.0 | 0.00 | 0.00 | 0.00 | 72 | |
| 20260507133544 | 57 | 341 | 5.0 | 8.0 | 0.00 | 0.00 | 0.00 | 71 | |
| 20260507132528 | 57 | 12 | 1.0 | 5.0 | 0.00 | 0.00 | 0.00 | 69 | |
| 20260507131542 | 58 | 12 | 2.0 | 6.0 | 0.00 | 0.00 | 0.00 | 69 | |
| 20260507130526 | 58 | 12 | 4.0 | 7.0 | 0.00 | 0.00 | 0.00 | 69 | |
| 20260507125559 | 58 | 13 | 5.0 | 8.0 | 0.00 | 0.00 | 0.00 | 68 | |
| 20260507124521 | 58 | 360 | 3.0 | 5.0 | 0.00 | 0.00 | 0.00 | 68 | |
| 20260507123550 | 58 | 30 | 2.0 | 5.0 | 0.00 | 0.00 | 0.00 | 67 | |
| 20260507122542 | 59 | 29 | 4.0 | 6.0 | 0.00 | 0.00 | 0.00 | 66 | |
| 20260507121526 | 59 | 20 | 1.0 | 5.0 | 0.00 | 0.00 | 0.00 | 66 | |
| 20260507120541 | 59 | 18 | 1.0 | 6.0 | 0.00 | 0.00 | 0.00 | 64 | |
| 20260507115545 | 59 | 325 | 1.0 | 7.0 | 0.00 | 0.00 | 0.00 | 66 | |
| 20260507114538 | 59 | 355 | 3.0 | 7.0 | 0.00 | 0.00 | 0.00 | 65 | |
| 20260507113521 | 59 | 304 | 1.0 | 5.0 | 0.00 | 0.00 | 0.00 | 68 | |
| 20260507112550 | 59 | 304 | 5.0 | 7.0 | 0.00 | 0.00 | 0.00 | 70 | |
| 20260507111532 | 58 | 327 | 4.0 | 6.0 | 0.00 | 0.00 | 0.00 | 70 | |
| 20260507110524 | 58 | 42 | 1.0 | 5.0 | 0.00 | 0.00 | 0.00 | 70 | |
| 20260507105528 | 58 | 355 | 3.0 | 6.0 | 0.00 | 0.00 | 0.00 | 69 | |
| 20260507104521 | 58 | 16 | 3.0 | 5.0 | 0.00 | 0.00 | 0.00 | 70 | |
| 20260507103524 | 58 | 14 | 5.0 | 8.0 | 0.00 | 0.00 | 0.00 | 70 | |
| 20260507102537 | 58 | 49 | 1.0 | 4.0 | 0.00 | 0.00 | 0.00 | 69 | |
| 20260507101521 | 58 | 47 | 5.0 | 6.0 | 0.00 | 0.00 | 0.00 | 71 | |
| 20260507100530 | 57 | 290 | 2.0 | 5.0 | 0.00 | 0.00 | 0.00 | 70 | |
| 20260507095533 | 57 | 248 | 0.0 | 4.0 | 0.00 | 0.00 | 0.00 | 70 | |
| 20260507094546 | 57 | 242 | 2.0 | 7.0 | 0.00 | 0.00 | 0.00 | 69 | |
| 20260507093531 | 57 | 194 | 3.0 | 7.0 | 0.00 | 0.00 | 0.00 | 72 | |
| 20260507092543 | 57 | 157 | 3.0 | 5.0 | 0.00 | 0.00 | 0.00 | 70 | |
| 20260507091526 | 58 | 97 | 6.0 | 7.0 | 0.00 | 0.00 | 0.00 | 73 | |
| 20260507090539 | 57 | 149 | 2.0 | 10.0 | 0.00 | 0.00 | 0.00 | 76 | |
| 20260507085539 | 56 | 140 | 4.0 | 8.0 | 0.00 | 0.00 | 0.00 | 79 | |
| 20260507084552 | 56 | 116 | 5.0 | 7.0 | 0.00 | 0.00 | 0.00 | 82 | |
| 20260507083545 | 55 | 98 | 2.0 | 7.0 | 0.00 | 0.00 | 0.00 | 85 | |
| 20260507082529 | 54 | 122 | 3.0 | 7.0 | 0.00 | 0.00 | 0.00 | 88 | |
| 20260507081532 | 52 | 100 | 3.0 | 6.0 | 0.00 | 0.00 | 0.00 | 89 | |
| 20260507080525 | 51 | 96 | 5.0 | 6.0 | 0.00 | 0.00 | 0.00 | 90 | |
| 20260507075529 | 51 | 78 | 4.0 | 7.0 | 0.00 | 0.00 | 0.00 | 91 | |
| 20260507074539 | 50 | 75 | 4.0 | 7.0 | 0.00 | 0.00 | 0.00 | 91 | |
| 20260507073522 | 50 | 74 | 4.0 | 7.0 | 0.00 | 0.00 | 0.00 | 92 | |
| 20260507072535 | 49 | 79 | 6.0 | 7.0 | 0.00 | 0.00 | 0.00 | 92 | |
| 20260507071539 | 49 | 82 | 5.0 | 7.0 | 0.00 | 0.00 | 0.00 | 92 | |
| 20260507070522 | 49 | 83 | 5.0 | 7.0 | 0.00 | 0.00 | 0.00 | 92 | |
| 20260507065534 | 49 | 80 | 4.0 | 7.0 | 0.00 | 0.00 | 0.00 | 93 | |
| 20260507064547 | 48 | 63 | 4.0 | 5.0 | 0.00 | 0.00 | 0.00 | 93 | |
| 20260507063532 | 48 | 61 | 3.0 | 6.0 | 0.00 | 0.00 | 0.00 | 93 | |
| 20260507062601 | 48 | 51 | 3.0 | 5.0 | 0.00 | 0.00 | 0.00 | 93 | |
| 20260507061523 | 47 | 50 | 1.0 | 4.0 | 0.00 | 0.00 | 0.00 | 93 | |
| 20260507060536 | 47 | 50 | 1.0 | 3.0 | 0.00 | 0.00 | 0.00 | 93 | |
| 20260507055540 | 47 | 50 | 3.0 | 5.0 | 0.00 | 0.00 | 0.00 | 93 | |
| 20260507054553 | 47 | 50 | 2.0 | 4.0 | 0.00 | 0.00 | 0.00 | 93 | |
| 20260507053536 | 46 | 50 | 1.0 | 2.0 | 0.00 | 0.00 | 0.00 | 93 | |
| 20260507052529 | 46 | 50 | 2.0 | 4.0 | 0.00 | 0.00 | 0.00 | 93 | |
| 20260507051528 | 46 | 50 | 1.0 | 2.0 | 0.00 | 0.00 | 0.00 | 93 | |
| 20260507050541 | 46 | 50 | 0.0 | 0.0 | 0.00 | 0.00 | 0.00 | 93 | |
| 20260507045525 | 46 | 50 | 0.0 | 0.0 | 0.00 | 0.00 | 0.00 | 93 | |
| 20260507044538 | 46 | 50 | 0.0 | 0.0 | 0.00 | 0.00 | 0.00 | 93 | |
| 20260507043521 | 46 | 50 | 0.0 | 2.0 | 0.00 | 0.00 | 0.00 | 93 | |
| 20260507042527 | 46 | 50 | 1.0 | 4.0 | 0.00 | 0.00 | 0.00 | 92 | |
| 20260507041539 | 46 | 49 | 4.0 | 5.0 | 0.00 | 0.00 | 0.00 | 92 | |
| 20260507040522 | 46 | 48 | 3.0 | 7.0 | 0.00 | 0.00 | 0.00 | 92 | |
| 20260507035532 | 46 | 13 | 2.0 | 5.0 | 0.00 | 0.00 | 0.00 | 93 | |
| 20260507034535 | 46 | 313 | 0.0 | 0.0 | 0.00 | 0.00 | 0.00 | 93 | |
| 20260507033528 | 45 | 312 | 0.0 | 0.0 | 0.00 | 0.00 | 0.00 | 92 | |
| 20260507032532 | 45 | 312 | 0.0 | 0.0 | 0.00 | 0.00 | 0.00 | 93 | |
| 20260507031525 | 45 | 313 | 0.0 | 0.0 | 0.00 | 0.00 | 0.00 | 92 | |
| 20260507030530 | 45 | 312 | 0.0 | 0.0 | 0.00 | 0.00 | 0.00 | 92 | |
| 20260507025543 | 44 | 312 | 0.0 | 1.0 | 0.00 | 0.00 | 0.00 | 92 | |
| 20260507024526 | 44 | 312 | 0.0 | 1.0 | 0.00 | 0.00 | 0.00 | 92 | |
| 20260507023556 | 44 | 312 | 0.0 | 0.0 | 0.00 | 0.00 | 0.00 | 92 | |
| 20260507022549 | 44 | 312 | 0.0 | 1.0 | 0.00 | 0.00 | 0.00 | 92 |